DW1024 Weather Reports


Display with metric or nautical units.
time (UTC)temp
F
wind
direction
speed
MPH
gust
MPH
rain 1hr
in
rain 24hr
in
rain mn
in
humidity
%
barometer
mb
20260504081916 70 63 2.0 8.0 0.00 0.00 0.00 46 1015.9
20260504080416 70 32 2.0 5.0 0.00 0.00 0.00 47 1016.1
20260504050412 55 211 0.0 2.0 0.00 0.00 0.00 74 1016.3
20260504044913 55 211 0.0 2.0 0.00 0.00 0.00 72 1016.3
20260504043416 55 211 0.0 1.0 0.00 0.00 0.00 70 1016.5
20260504041912 55 211 0.0 0.0 0.00 0.00 0.00 69 1016.4
20260504040411 55 211 0.0 1.0 0.00 0.00 0.00 68 1016.4
20260504034907 56 211 0.0 0.0 0.00 0.00 0.00 67 1016.5
20260504033411 56 211 0.0 1.0 0.00 0.00 0.00 66 1016.6
20260504030403 57 211 0.0 1.0 0.00 0.00 0.00 66 1016.7
20260504024905 57 211 0.0 0.0 0.00 0.00 0.00 65 1016.6
20260504023401 58 211 0.0 1.0 0.00 0.00 0.00 64 1016.6
20260504021901 58 211 1.0 3.0 0.00 0.00 0.00 64 1016.9
20260504020358 58 240 0.0 2.0 0.00 0.00 0.00 64 1016.8
20260504014901 59 224 0.0 3.0 0.00 0.00 0.00 63 1016.9
20260504013402 59 209 1.0 4.0 0.00 0.00 0.00 61 1016.9
20260504004859 60 261 1.0 4.0 0.00 0.00 0.00 58 1016.6
20260504003357 60 271 2.0 10.0 0.00 0.00 0.00 54 1016.6
20260504001858 61 286 3.0 10.0 0.00 0.00 0.00 54 1016.6
20260504000357 61 251 3.0 10.0 0.00 0.00 0.00 56 1016.4
20260503234858 60 313 4.0 10.0 0.00 0.00 0.00 58 1015.9
20260503233402 61 222 2.0 6.0 0.00 0.00 0.00 63 1015.8
20260503231854 60 285 1.0 4.0 0.00 0.00 0.00 62 1015.7
20260503230358 60 236 1.0 5.0 0.00 0.00 0.00 63 1015.4
20260503224855 59 258 1.0 9.0 0.00 0.00 0.00 63 1015.3
20260503223351 59 283 0.0 0.0 0.00 0.00 0.00 61 1015.2
20260503221851 60 283 0.0 0.0 0.00 0.00 0.00 60 1014.8
20260503214853 61 283 0.0 0.0 0.00 0.00 0.00 58 1014.9
20260503213349 61 283 0.0 0.0 0.00 0.00 0.00 57 1014.8
20260503211851 61 283 0.0 3.0 0.00 0.00 0.00 57 1014.6
20260503210350 61 269 0.0 2.0 0.00 0.00 0.00 57 1014.5
20260503204853 62 269 0.0 0.0 0.00 0.00 0.00 56 1014.3
20260503203350 62 269 0.0 1.0 0.00 0.00 0.00 56 1014.0
20260503201851 63 269 0.0 1.0 0.00 0.00 0.00 57 1014.0
20260503200349 64 269 0.0 0.0 0.00 0.00 0.00 54 1013.9
20260503194850 65 269 0.0 0.0 0.00 0.00 0.00 51 1013.9
20260503193351 67 269 0.0 0.0 0.00 0.00 0.00 48 1013.8
20260503190345 69 269 0.0 1.0 0.00 0.00 0.00 43 1013.5
20260503184850 70 269 0.0 3.0 0.00 0.00 0.00 41 1013.5
20260503183347 71 269 1.0 8.0 0.00 0.00 0.00 40 1013.5
20260503181846 72 229 1.0 7.0 0.00 0.00 0.00 39 1013.4
20260503180347 73 242 1.0 3.0 0.00 0.00 0.00 39 1013.1
20260503174847 74 233 2.0 6.0 0.00 0.00 0.00 37 1013.1
20260503173352 74 268 1.0 4.0 0.00 0.00 0.00 33 1013.0
20260503170347 76 260 2.0 5.0 0.00 0.00 0.00 34 1012.7
20260503150341 79 78 0.0 3.0 0.00 0.00 0.00 33 1012.8
20260503130343 83 291 2.0 5.0 0.00 0.00 0.00 31 1013.8